STARLINK-5621, 55434

Orbit data source: Space-Track

STARLINK-5621, 55434 is a payload satellite owned by SpaceX/Seattle (US) in LEO that was launched on Tue, 31 Jan 2023 UTC via an FALCON 9 launch vehicle from the Air Force Western Test Range (AFWTR). Payload-class satellites include a variety of spacecraft equipped with specific instruments for various scientific and technological missions. These include communications satellites like Starlink; space stations such as the ISS; scientific satellites like the Hubble; Earth observation satellites from companies like Planet Labs, Umbra, and HawkEye 360; GPS; miniature CubeSats for education and research; and military/defense satellites.

Loading next visibility...
Identifier
55434, 2023-014AV
Orbit
LEO
Country
Flag of USUS
Related business
Manufacturer
SpaceX/Seattle
Mission
Operational Commercial Communications
Bus & Motor
STARLINK, Unknown motor
Mass
305 kg wet, ~290 kg dry
Launch date (UTC)
2023-01-31 (3 years ago)
Launch vehicle
FALCON 9
Launch site
Air Force Western Test Range (AFWTR)
Object type
Payload
Rocket body
Debris
Shape & HBR
Box + 1 Pan, 10.1 m
Radar Cross Section
13.562 m², Large (>1 m²)

Expand to show TLE details & history
Last TLE update: 2 days ago

TLE from 2 days ago
0 STARLINK-5621
1 55434U 23014AV  26171.40320220  .00000409  00000-0  42083-4 0  9995
2 55434  69.9992 205.4962 0003642 269.1084  90.9657 14.98331772186455
Epoch: 2026-06-20T09:40Z
TLE epoch observation values (Epoch: 2026-06-20T09:40:36.670Z)
Latitude
-0.00007°
Longitude
151.72505°
Altitude
574.518 km
Speed
7.574 km/s
True Right ascension
13h 41m 59s
True Declination
0° 00' 00"
Sunlit
Object was in full shadow at epoch
Visualization orbit readout
Latitude
Unknown
Longitude
Unknown
Altitude
Unknown
Speed
Unknown
Apparent Right ascension
Unknown
Apparent Declination
Unknown
Sunlit
N/A
Visualization observer readout
Local Sidereal Time
21:23:48
Azimuth
Unknown
Elevation
Unknown
Doppler factor
Unknown
Orbital elements
Apogee altitude
572.529 km
Perigee altitude
567.468 km
Semi-major axis
6,948.136 km
Eccentricity
0.00036
Inclination
69.9992°
RAAN
205.4962°
Arg. of periapsis
269.1084°
True anomaly
91.00743°
Mean anomaly
90.9657°
Eccentric anomaly
90.98656°
Mean motion
3.74749 °/min
Orbital period
96.06 mins
BSTAR
0.000042083
Loading maneuver chart data...
Computing Atmospheric mass density...

Documentation

Showing up to 5 results
|